Wind_Speed
25 26 25 26 27 26 26 26 25 25 24 24 23 22 23 23 25 25 24 23 25 26 25 25 24 24 25 24 22 21 20 19 18 18 18 17 16 15 14 13 13 12 11
25 28 29 29 27 27 29 29 29 27 26 25 24 23 23 24 25 26 26 26 26 27 27 27 26 26 26 26 25 24 23 22 21 20 20 19 18 17 16 15 14 13 12
25 26 27 29 30 30 31 31 31 31 29 28 26 25 24 24 26 27 27 28 29 29 29 29 28 29 28 28 28 28 26 25 23 23 22 21 20 19 18 16 15 14 14
25 26 27 27 29 30 31 32 32 31 30 29 27 27 27 25 26 27 28 29 31 32 31 31 31 31 31 30 30 30 29 28 26 25 24 23 22 21 19 18 17 16 15
26 26 27 27 29 29 29 30 32 31 31 30 30 29 29 28 27 28 30 31 32 33 33 33 33 33 33 33 33 32 32 31 29 28 27 26 24 23 22 21 19 18 17
27 27 28 28 28 29 29 30 30 31 31 31 31 31 30 29 28 28 28 31 33 33 34 34 35 34 34 34 34 34 34 34 33 31 30 28 27 25 24 23 21 20 19
27 28 28 29 29 30 30 30 31 31 32 33 33 33 32 32 30 29 29 31 32 33 34 35 35 36 36 36 36 36 35 35 35 35 33 31 29 28 26 25 23 22 21
28 29 30 31 31 32 32 33 33 34 34 35 34 34 34 34 33 31 32 33 33 35 35 36 36 37 38 38 37 36 37 36 36 37 36 34 32 31 29 27 26 24 23
29 29 30 31 32 33 34 35 35 35 36 36 36 36 36 35 35 34 34 35 35 36 36 37 37 38 39 38 39 38 37 37 36 36 38 36 34 33 31 30 28 26 25
29 30 30 31 32 34 34 35 36 37 37 38 38 38 37 37 38 37 36 37 37 38 37 37 38 39 40 40 38 38 38 37 38 36 38 39 37 35 33 32 30 29 27
30 30 31 32 33 34 35 36 36 37 38 38 39 39 39 39 39 39 38 38 38 39 39 38 38 40 40 40 40 39 39 39 39 39 37 39 39 38 36 34 32 30 29
31 31 32 33 34 35 36 37 37 38 38 39 40 40 40 40 40 40 40 40 40 40 41 39 39 41 41 42 42 40 40 40 40 40 38 39 41 40 38 36 34 32 31
31 32 33 33 34 35 36 36 37 38 39 40 41 41 41 41 41 41 41 41 40 41 41 41 40 41 42 42 42 41 41 41 41 41 40 40 41 40 39 38 36 34 33
31 32 33 33 34 35 35 37 38 39 40 41 41 42 42 42 43 43 42 42 42 42 42 42 42 42 42 42 41 41 43 43 42 41 41 40 39 40 40 39 37 36 34
31 31 32 33 34 35 36 37 38 40 41 42 43 43 44 44 44 44 44 43 43 43 43 43 43 43 43 43 43 42 43 45 44 43 42 41 40 40 40 39 37 36 35
30 30 31 32 33 34 36 37 39 40 41 43 44 45 45 45 45 45 46 45 44 44 43 44 45 45 45 45 44 43 43 44 45 45 44 43 41 41 40 39 38 36 35
30 30 31 32 33 33 34 36 37 39 41 42 44 45 46 46 47 46 46 47 46 45 45 44 44 45 45 46 45 45 45 45 45 45 44 43 43 42 41 40 39 38 36
30 31 31 32 32 33 34 35 36 37 39 41 43 44 45 46 46 47 47 47 47 46 45 45 45 46 46 46 47 46 46 46 45 46 45 44 44 43 42 41 40 38 36
31 31 31 31 32 32 32 33 34 36 37 39 40 42 43 45 46 47 48 48 48 47 46 46 46 46 46 47 47 47 47 46 46 46 47 46 45 44 43 42 41 39 37
31 31 31 31 31 30 30 30 31 32 34 36 38 40 41 43 44 45 47 47 48 48 47 46 47 47 46 46 46 45 47 47 47 47 48 47 46 45 45 43 42 40 38
31 31 30 30 29 29 28 28 28 29 30 32 34 37 39 41 42 44 45 47 47 47 47 46 46 46 46 46 46 45 46 46 47 48 48 48 47 47 46 44 42 41 39
31 30 29 28 28 28 27 27 26 27 27 29 30 33 36 38 40 42 43 45 46 47 47 47 46 46 46 47 47 46 46 47 47 48 49 49 49 47 46 45 43 42 40
30 29 28 28 27 26 25 25 25 25 25 26 28 30 33 35 37 39 42 44 45 46 47 46 47 46 46 47 47 47 46 46 47 48 50 50 50 49 47 46 44 43 42
30 29 28 27 25 24 24 24 23 22 22 23 25 26 29 31 34 37 39 42 44 46 46 47 47 47 48 47 48 48 47 46 47 48 49 50 50 50 48 47 45 44 42
29 28 28 26 25 24 24 22 21 20 20 20 21 24 26 29 30 33 37 39 42 44 46 47 47 48 49 48 48 48 47 47 48 49 48 49 49 50 49 48 46 45 43
29 28 27 26 25 24 23 21 20 18 17 18 19 20 22 25 28 30 32 36 39 42 44 46 47 48 49 49 49 48 48 47 49 50 50 50 49 50 50 49 47 46 45
Wind_Direction
266 261 257 259 258 257 258 260 261 262 261 259 256 254 250 247 244 244 240 236 232 228 226 226 224 222 218 215 213 211 208 208 208 207 206 205 204 203 202 201 199 196 193
271 264 261 260 260 260 260 260 260 259 259 257 257 254 251 249 245 243 241 236 232 229 228 227 226 224 221 217 215 214 212 211 210 209 209 209 208 207 207 206 205 202 201
274 268 265 262 262 263 260 259 259 258 258 259 258 256 254 251 246 242 239 236 232 230 229 228 228 226 222 221 218 216 215 214 213 212 211 211 211 210 210 210 209 208 207
278 273 270 268 266 265 263 260 259 258 258 260 258 256 256 255 249 244 241 238 235 232 231 231 230 229 225 223 222 220 218 217 216 215 214 213 213 213 212 212 213 214 213
278 274 272 271 269 268 266 262 258 256 256 258 258 257 255 255 253 248 243 238 236 234 233 233 232 229 228 226 224 223 221 219 219 217 215 215 215 215 215 215 216 217 218
278 275 271 269 269 268 267 263 258 256 256 256 257 255 254 254 253 250 247 242 239 237 235 234 232 230 228 228 227 225 223 222 220 219 217 216 216 216 217 218 220 221 221
276 273 271 269 267 266 265 264 259 257 256 255 255 254 254 253 251 248 247 244 241 240 236 234 234 232 230 228 228 227 226 224 223 220 218 218 218 219 219 220 221 222 224
277 274 271 269 267 266 264 262 260 257 256 254 254 253 252 252 250 247 245 244 243 240 237 237 237 234 231 230 229 229 227 226 225 222 220 220 220 221 221 222 222 223 225
279 277 273 271 268 266 264 262 260 258 257 255 253 253 252 250 249 247 245 243 242 241 240 238 237 234 232 231 229 229 229 228 226 224 221 220 220 221 222 223 224 225 226
282 279 276 273 270 267 264 263 261 259 258 256 253 252 251 249 247 246 245 243 241 240 240 239 238 235 233 232 230 229 229 230 228 227 224 221 221 222 223 224 225 227 228
284 281 278 275 271 268 265 263 261 259 257 256 254 252 251 250 247 245 244 243 241 239 238 238 237 236 233 231 230 230 230 229 229 228 226 223 222 222 223 224 226 228 229
286 284 281 277 273 270 266 263 261 259 257 256 254 253 251 250 248 245 243 242 241 239 237 237 236 235 234 232 229 230 229 228 228 227 227 225 223 222 223 225 226 228 230
290 287 284 281 276 272 268 264 261 259 257 255 254 253 250 249 247 245 243 240 238 237 237 237 235 234 233 232 230 229 228 227 227 227 227 226 225 224 224 224 227 229 230
293 291 287 284 280 275 270 266 262 259 257 256 254 252 250 248 247 245 242 240 238 236 237 236 233 232 231 231 229 227 227 226 226 226 226 227 226 225 225 225 227 228 230
295 292 289 286 282 278 273 269 265 261 258 256 254 252 250 249 247 245 242 241 239 237 236 233 233 232 231 230 229 228 227 226 226 226 226 226 225 226 226 228 228 228 230
298 295 293 290 285 281 276 271 267 263 260 257 254 252 250 248 247 245 242 240 238 237 235 233 232 232 230 229 229 228 226 226 226 226 226 225 225 225 226 227 229 230 231
303 299 296 292 288 284 280 275 270 265 261 258 255 252 250 247 245 244 242 239 237 236 234 233 232 231 230 229 229 228 225 225 226 226 225 225 224 225 225 226 228 229 231
308 304 300 296 291 287 282 278 273 268 263 259 256 252 249 247 245 243 241 239 237 235 234 232 231 231 230 229 229 228 226 226 225 225 224 224 224 224 225 226 227 228 230
313 308 304 300 296 290 285 280 275 270 265 260 256 253 249 247 244 242 240 239 237 235 233 231 231 230 229 228 227 227 227 225 225 224 223 223 223 223 223 225 226 227 229
316 312 309 305 300 295 289 283 278 273 266 261 256 252 249 246 243 240 239 238 237 234 232 230 229 229 228 227 226 226 225 225 224 223 223 222 221 222 222 223 224 226 228
320 317 313 309 304 300 294 288 282 276 270 263 257 252 248 244 242 240 238 236 235 234 231 229 227 227 226 225 225 225 224 224 224 224 222 221 220 221 222 222 223 225 227
325 322 318 313 309 304 298 291 284 279 272 265 258 253 248 243 241 239 237 235 234 232 231 229 227 226 225 224 223 223 223 223 223 222 221 220 220 220 221 222 223 225 226
330 328 324 319 315 310 304 297 290 282 274 267 259 253 249 244 240 237 236 234 232 231 231 229 227 224 222 221 222 222 222 222 222 222 220 220 220 220 221 222 223 224 225
335 333 330 327 322 317 313 306 297 287 277 269 261 254 249 244 240 235 233 232 231 231 230 229 226 224 220 219 220 221 220 220 221 221 221 219 219 220 220 222 223 223 225
338 337 336 333 329 324 320 314 305 293 282 272 263 255 248 243 240 235 232 231 230 229 229 229 228 226 223 220 218 219 219 220 219 219 219 218 217 218 219 221 223 224 225
340 341 340 338 334 331 326 321 314 301 289 278 267 256 249 242 239 234 232 230 230 228 228 228 229 227 225 223 221 220 220 220 220 221 221 220 218 217 218 220 223 225 226
Height
5865 5865 5865 5866 5867 5868 5869 5870 5870 5871 5871 5872 5873 5873 5874 5876 5877 5879 5881 5883 5885 5888 5890 5892 5894 5896 5898 5901 5903 5905 5908 5910 5912 5915 5917 5919 5922 5924 5926 5928 5930 5931 5933
5858 5858 5859 5860 5861 5862 5862 5863 5864 5864 5865 5866 5867 5867 5868 5870 5871 5873 5875 5878 5880 5883 5885 5887 5889 5892 5894 5897 5900 5902 5905 5907 5910 5913 5915 5918 5920 5922 5925 5927 5929 5931 5932
5853 5852 5853 5854 5854 5854 5855 5856 5857 5858 5859 5860 5861 5861 5862 5863 5865 5867 5869 5872 5874 5877 5880 5882 5885 5887 5890 5892 5895 5898 5901 5904 5907 5910 5912 5915 5918 5920 5923 5925 5927 5929 5931
5847 5847 5847 5847 5846 5847 5847 5848 5850 5850 5852 5853 5854 5855 5856 5857 5859 5860 5862 5865 5868 5870 5873 5876 5879 5882 5884 5887 5890 5894 5897 5900 5903 5906 5909 5912 5915 5918 5920 5923 5925 5928 5930
5841 5841 5841 5840 5840 5840 5840 5841 5842 5843 5845 5846 5847 5848 5849 5851 5852 5854 5856 5858 5861 5864 5866 5870 5872 5875 5879 5882 5885 5888 5892 5895 5899 5902 5905 5908 5911 5914 5917 5920 5923 5925 5927
5834 5834 5834 5833 5833 5833 5833 5833 5834 5836 5837 5838 5839 5841 5843 5844 5845 5847 5849 5851 5854 5857 5860 5862 5866 5869 5872 5876 5879 5882 5886 5890 5893 5897 5901 5904 5908 5911 5914 5917 5920 5922 5925
5827 5827 5826 5826 5826 5825 5826 5826 5827 5828 5829 5831 5832 5834 5835 5836 5837 5839 5842 5844 5847 5850 5853 5855 5859 5862 5866 5869 5873 5876 5880 5884 5888 5892 5896 5900 5903 5907 5910 5913 5916 5919 5922
5819 5818 5818 5817 5817 5817 5818 5818 5819 5820 5821 5822 5824 5825 5827 5829 5830 5832 5834 5837 5840 5842 5845 5848 5851 5855 5858 5862 5867 5870 5874 5878 5882 5886 5890 5894 5898 5902 5905 5909 5912 5915 5918
5811 5810 5809 5809 5808 5808 5809 5809 5810 5811 5812 5813 5815 5817 5818 5820 5822 5824 5826 5829 5831 5834 5838 5840 5843 5847 5851 5855 5859 5863 5867 5871 5875 5879 5884 5888 5893 5897 5900 5904 5907 5911 5914
5802 5801 5800 5800 5799 5799 5799 5799 5800 5801 5802 5803 5805 5806 5808 5811 5813 5815 5818 5820 5823 5826 5829 5832 5836 5839 5843 5847 5851 5856 5860 5864 5868 5872 5877 5882 5887 5891 5895 5899 5902 5906 5909
5794 5792 5791 5790 5790 5789 5789 5789 5790 5791 5792 5793 5794 5796 5798 5800 5802 5805 5808 5811 5814 5817 5820 5824 5827 5831 5835 5839 5844 5849 5853 5857 5861 5866 5870 5874 5879 5884 5889 5893 5897 5901 5904
5785 5783 5781 5780 5779 5778 5778 5778 5779 5780 5781 5782 5784 5785 5787 5790 5792 5795 5798 5801 5804 5808 5811 5815 5819 5823 5826 5831 5836 5841 5846 5849 5854 5859 5863 5868 5872 5878 5882 5887 5891 5895 5898
5775 5773 5771 5769 5768 5767 5767 5767 5768 5769 5770 5771 5773 5774 5776 5779 5781 5784 5787 5790 5793 5797 5801 5805 5810 5814 5818 5822 5828 5833 5838 5842 5847 5852 5856 5861 5866 5871 5876 5880 5885 5889 5893
5766 5763 5761 5759 5757 5756 5756 5755 5756 5757 5758 5759 5761 5763 5765 5767 5770 5773 5776 5780 5783 5787 5791 5796 5800 5805 5809 5814 5819 5824 5829 5834 5839 5844 5849 5854 5859 5864 5869 5874 5878 5883 5886
5757 5754 5751 5748 5746 5745 5744 5743 5743 5744 5745 5746 5748 5751 5753 5756 5759 5761 5765 5769 5772 5777 5781 5786 5790 5795 5800 5805 5810 5814 5820 5826 5831 5837 5842 5847 5852 5857 5862 5867 5871 5876 5880
5748 5745 5741 5738 5736 5734 5732 5731 5731 5731 5732 5733 5735 5737 5740 5743 5746 5749 5753 5757 5761 5766 5771 5776 5781 5785 5790 5795 5801 5806 5811 5817 5822 5828 5833 5839 5844 5850 5855 5860 5865 5869 5873
5739 5735 5732 5728 5725 5722 5720 5719 5718 5718 5719 5720 5721 5724 5727 5729 5733 5737 5741 5745 5750 5754 5760 5765 5770 5775 5780 5785 5791 5796 5802 5807 5813 5819 5825 5831 5837 5842 5847 5853 5858 5862 5867
5731 5726 5722 5718 5714 5711 5709 5706 5705 5705 5705 5706 5707 5710 5713 5716 5720 5724 5728 5733 5738 5743 5748 5754 5759 5764 5770 5775 5781 5787 5793 5798 5804 5810 5816 5822 5828 5834 5840 5845 5850 5855 5860
5722 5717 5712 5708 5704 5700 5697 5694 5693 5692 5692 5692 5694 5696 5699 5702 5706 5710 5715 5720 5726 5731 5737 5743 5748 5754 5759 5765 5771 5777 5783 5789 5795 5801 5807 5813 5820 5826 5832 5837 5843 5848 5852
5714 5708 5703 5698 5693 5689 5686 5683 5681 5680 5679 5679 5680 5682 5685 5688 5693 5697 5702 5708 5713 5719 5725 5732 5737 5743 5749 5755 5761 5767 5773 5779 5785 5792 5798 5805 5811 5817 5823 5829 5835 5840 5845
5706 5700 5694 5689 5684 5680 5676 5673 5671 5669 5668 5668 5668 5670 5672 5676 5680 5685 5690 5696 5702 5707 5713 5720 5726 5732 5738 5745 5751 5758 5764 5769 5776 5782 5789 5796 5802 5808 5814 5821 5827 5832 5837
5699 5692 5686 5681 5675 5671 5667 5663 5661 5659 5657 5657 5657 5659 5661 5664 5669 5673 5678 5684 5690 5696 5702 5708 5715 5722 5728 5735 5741 5748 5754 5760 5767 5774 5780 5786 5793 5800 5806 5812 5818 5824 5830
5692 5686 5679 5673 5668 5663 5659 5655 5652 5649 5648 5647 5647 5648 5650 5653 5657 5662 5667 5672 5678 5684 5691 5697 5704 5711 5718 5725 5732 5738 5744 5750 5757 5764 5770 5777 5784 5791 5797 5804 5810 5816 5822
5686 5680 5673 5667 5661 5656 5652 5647 5644 5641 5639 5638 5638 5639 5641 5643 5646 5651 5656 5661 5667 5673 5680 5687 5694 5701 5707 5713 5721 5728 5734 5741 5747 5753 5760 5767 5774 5781 5788 5795 5801 5807 5813
5681 5675 5668 5662 5656 5651 5645 5641 5636 5633 5632 5630 5630 5631 5632 5634 5637 5641 5646 5652 5657 5663 5669 5676 5683 5689 5696 5703 5711 5718 5724 5731 5737 5744 5751 5758 5765 5772 5779 5786 5792 5799 5805
5677 5670 5664 5657 5651 5646 5640 5635 5631 5627 5625 5623 5623 5623 5624 5627 5629 5633 5638 5642 5647 5653 5659 5665 5672 5679 5686 5693 5700 5708 5715 5722 5728 5735 5741 5749 5755 5762 5770 5777 5783 5790 5796